Location: Holyhead Bay
(53.3667°N, 4.6667°W)
Time: 00:11:54
(UTC+00:00)

ADEOS Rocket - Pass Details

Date: 17 April 2021
Orbit: 859 x 1306 km, 98.7° (Epoch: 15 May)

Event Time Altitude Azimuth Distance (km) Brightness Sun altitude
Rises 00:23:10 0° 98° (E) 3,815 6.0 -26.1°
Reaches altitude 10° 00:26:27 10° 80° (E) 2,945 5.6 -26.1°
Maximum altitude 00:30:42 18° 41° (NE) 2,487 5.7 -26.1°
Drops below altitude 10° 00:35:12 10° 2° (N) 3,148 6.7 -26.0°
Sets 00:38:51 0° 345° (NNW) 4,185 7.4 -26.0°
